| time (UTC) | temp C | wind direction | speed KPH | gust KPH | rain 1hr cm | rain 24hr cm | rain mn cm | humidity % | barometer mb |
| 20260504081512 | 12 | 235 | 0.0 | 1.6 | 0.03 | 0.10 | 0.10 | 93 | 1007.0 |
| 20260504050024 | 12 | 231 | 0.0 | 3.2 | 0.00 | 0.00 | 0.00 | 83 | 1008.6 |
| 20260504044527 | 13 | 8 | 0.0 | 1.6 | 0.00 | 0.00 | 0.00 | 80 | 1008.2 |
| 20260504043015 | 13 | 8 | 0.0 | 1.6 | 0.00 | 0.00 | 0.00 | 82 | 1008.5 |
| 20260504041520 | 13 | 325 | 0.0 | 0.0 | 0.00 | 0.00 | 0.00 | 81 | 1008.6 |
| 20260504040024 | 13 | 325 | 0.0 | 0.0 | 0.00 | 0.00 | 0.00 | 80 | 1008.7 |
| 20260504034539 | 13 | 325 | 0.0 | 0.0 | 0.00 | 0.00 | 0.00 | 78 | 1008.8 |
| 20260504033029 | 13 | 325 | 0.0 | 0.0 | 0.00 | 0.00 | 0.00 | 77 | 1009.0 |
| 20260504031518 | 14 | 325 | 0.0 | 0.0 | 0.00 | 0.00 | 0.00 | 76 | 1009.1 |
| 20260504030029 | 15 | 325 | 0.0 | 0.0 | 0.00 | 0.00 | 0.00 | 71 | 1009.0 |
| 20260504024522 | 15 | 325 | 0.0 | 0.0 | 0.00 | 0.00 | 0.00 | 70 | 1008.9 |
| 20260504023028 | 16 | 324 | 0.0 | 0.0 | 0.00 | 0.00 | 0.00 | 66 | 1008.8 |
| 20260504021527 | 16 | 325 | 0.0 | 0.0 | 0.00 | 0.00 | 0.00 | 65 | 1008.8 |
| 20260504020020 | 16 | 325 | 0.0 | 0.0 | 0.00 | 0.00 | 0.00 | 61 | 1008.7 |
| 20260504014505 | 17 | 325 | 0.0 | 0.0 | 0.00 | 0.00 | 0.00 | 60 | 1008.9 |
| 20260504013006 | 17 | 325 | 0.0 | 0.0 | 0.00 | 0.00 | 0.00 | 58 | 1008.5 |
| 20260504011510 | 18 | 325 | 0.0 | 3.2 | 0.00 | 0.00 | 0.00 | 56 | 1008.8 |
| 20260504010016 | 18 | 340 | 0.0 | 3.2 | 0.00 | 0.00 | 0.00 | 58 | 1008.6 |
| 20260504004522 | 18 | 351 | 0.0 | 0.0 | 0.00 | 0.00 | 0.00 | 58 | 1008.7 |
| 20260504003023 | 18 | 351 | 0.0 | 1.6 | 0.00 | 0.00 | 0.00 | 57 | 1008.7 |
| 20260504001504 | 19 | 348 | 0.0 | 1.6 | 0.00 | 0.00 | 0.00 | 56 | 1008.9 |
| 20260504000010 | 20 | 348 | 0.0 | 1.6 | 0.00 | 0.00 | 0.00 | 53 | 1008.9 |
| 20260503234518 | 20 | 89 | 0.0 | 3.2 | 0.00 | 0.00 | 0.00 | 51 | 1008.5 |
| 20260503233022 | 21 | 34 | 0.0 | 3.2 | 0.00 | 0.00 | 0.00 | 53 | 1008.8 |
| 20260503231536 | 21 | 356 | 0.0 | 4.8 | 0.00 | 0.00 | 0.00 | 53 | 1008.8 |
| 20260503230010 | 21 | 353 | 0.0 | 3.2 | 0.00 | 0.00 | 0.00 | 51 | 1008.9 |
| 20260503224513 | 22 | 127 | 0.0 | 4.8 | 0.00 | 0.00 | 0.00 | 53 | 1009.0 |
| 20260503223023 | 22 | 37 | 0.0 | 4.8 | 0.00 | 0.00 | 0.00 | 50 | 1008.9 |
| 20260503221519 | 22 | 245 | 1.6 | 6.4 | 0.00 | 0.00 | 0.00 | 49 | 1009.2 |
| 20260503220034 | 22 | 103 | 1.6 | 3.2 | 0.00 | 0.00 | 0.00 | 51 | 1008.1 |
| 20260503214509 | 22 | 212 | 1.6 | 6.4 | 0.00 | 0.00 | 0.00 | 50 | 1009.1 |
| 20260503213016 | 22 | 139 | 1.6 | 8.0 | 0.00 | 0.00 | 0.00 | 49 | 1009.1 |
| 20260503211523 | 22 | 231 | 3.2 | 11.3 | 0.00 | 0.00 | 0.00 | 47 | 1009.5 |
| 20260503210024 | 22 | 207 | 3.2 | 12.9 | 0.00 | 0.00 | 0.00 | 47 | 1009.4 |
| 20260503204539 | 23 | 262 | 3.2 | 12.9 | 0.00 | 0.00 | 0.00 | 47 | 1009.8 |
| 20260503203021 | 22 | 197 | 4.8 | 11.3 | 0.00 | 0.00 | 0.00 | 45 | 1009.8 |
| 20260503201513 | 22 | 219 | 6.4 | 11.3 | 0.00 | 0.00 | 0.00 | 45 | 1009.8 |
| 20260503200004 | 22 | 251 | 3.2 | 11.3 | 0.00 | 0.00 | 0.00 | 47 | 1009.7 |
| 20260503194506 | 23 | 219 | 3.2 | 17.7 | 0.00 | 0.00 | 0.00 | 45 | 1010.0 |
| 20260503193007 | 23 | 229 | 6.4 | 16.1 | 0.00 | 0.00 | 0.00 | 45 | 1010.2 |
| 20260503191504 | 22 | 217 | 4.8 | 17.7 | 0.00 | 0.00 | 0.00 | 47 | 1010.3 |
| 20260503190004 | 21 | 217 | 4.8 | 17.7 | 0.00 | 0.00 | 0.00 | 50 | 1010.7 |
| 20260503184505 | 20 | 195 | 4.8 | 20.9 | 0.00 | 0.00 | 0.00 | 49 | 1010.6 |
| 20260503183006 | 20 | 194 | 8.0 | 16.1 | 0.00 | 0.00 | 0.00 | 49 | 1011.2 |
| 20260503181507 | 19 | 229 | 8.0 | 20.9 | 0.00 | 0.00 | 0.00 | 49 | 1010.9 |
| 20260503180019 | 18 | 233 | 4.8 | 14.5 | 0.00 | 0.00 | 0.00 | 53 | 1011.6 |
| 20260503174517 | 18 | 186 | 3.2 | 14.5 | 0.00 | 0.00 | 0.00 | 57 | 1011.6 |
| 20260503173005 | 17 | 158 | 4.8 | 11.3 | 0.00 | 0.00 | 0.00 | 55 | 1011.9 |
| 20260503171515 | 17 | 219 | 3.2 | 12.9 | 0.00 | 0.00 | 0.00 | 54 | 1012.0 |